Vorticity
5 12 5 24 23 19 34 9 10 7 8 8 5 9 13 15 17 19 16 8 24 23
15 18 19 25 17 9 47 20 9 5 5 7 9 9 21 6 15 17 11 1 5 2
33 26 41 18 10 24 48 26 7 4 7 4 14 -2 9 20 -8 35 7 24 34 73
17 25 26 24 41 51 21 35 42 16 8 4 6 9 6 13 12 14 38 37 46 -24
21 18 23 26 35 36 22 -1 13 29 32 25 10 12 5 13 24 -0 35 28 28 36
18 10 24 28 25 28 22 4 -21 21 18 25 18 0 6 12 5 43 3 19 -12 12
16 12 21 24 6 25 18 10 -15 12 17 25 15 11 11 6 23 7 17 -4 14 10
13 18 16 16 17 18 18 25 6 -51 -13 11 8 13 10 9 12 10 20 9 26 6
14 21 16 15 12 19 19 8 38 43 -0 15 15 12 22 15 4 18 25 11 13 20
15 16 15 17 11 17 11 6 -11 5 2 -6 19 15 7 14 16 11 26 16 18 12
14 13 14 14 17 9 13 10 19 10 22 7 12 5 11 18 9 2 13 19 13 15
14 13 14 14 14 10 13 8 10 15 15 9 14 3 11 8 11 20 6 7 16 6
15 13 13 17 14 12 10 16 23 12 6 -4 8 8 16 11 15 10 18 18 8 8
15 16 18 16 13 13 15 6 14 17 27 2 -1 3 1 9 12 16 12 10 12 10
Height
5613 5610 5612 5609 5607 5607 5606 5611 5612 5614 5617 5618 5618 5618 5621 5621 5622 5624 5625 5626 5635 5638
5588 5581 5581 5586 5584 5587 5587 5588 5594 5598 5601 5603 5605 5607 5608 5606 5604 5607 5610 5610 5609 5597
5569 5564 5561 5564 5563 5563 5564 5569 5578 5581 5585 5587 5590 5593 5594 5592 5591 5591 5594 5594 5592 5592
5556 5553 5549 5545 5542 5542 5549 5556 5563 5567 5570 5573 5577 5579 5581 5580 5579 5579 5579 5582 5579 5582
5547 5542 5538 5533 5531 5534 5535 5545 5551 5552 5555 5560 5565 5567 5569 5569 5567 5569 5570 5565 5567 5567
5538 5534 5530 5526 5526 5526 5527 5533 5535 5542 5545 5549 5552 5556 5559 5559 5558 5558 5559 5557 5559 5559
5531 5526 5523 5521 5520 5520 5521 5525 5529 5533 5534 5539 5542 5545 5548 5549 5549 5551 5552 5551 5550 5551
5526 5522 5519 5517 5516 5515 5516 5519 5522 5525 5528 5532 5535 5537 5539 5540 5540 5540 5541 5542 5543 5542
5522 5519 5516 5513 5512 5511 5512 5515 5518 5520 5524 5526 5529 5530 5531 5532 5532 5530 5530 5531 5533 5533
5519 5515 5513 5511 5509 5508 5509 5511 5512 5513 5517 5520 5523 5524 5524 5525 5525 5524 5523 5522 5524 5525
5516 5513 5510 5509 5507 5506 5506 5507 5508 5510 5512 5514 5516 5517 5518 5518 5519 5518 5517 5516 5516 5517
5513 5510 5508 5506 5505 5503 5503 5503 5505 5506 5508 5509 5510 5512 5512 5512 5511 5511 5511 5511 5510 5512
5511 5509 5506 5505 5503 5501 5500 5500 5501 5502 5504 5505 5506 5506 5507 5506 5505 5505 5505 5504 5503 5504
5511 5508 5506 5503 5501 5499 5498 5498 5498 5498 5499 5500 5501 5501 5500 5499 5498 5498 5497 5497 5496 5495